Regional Weather Roundup
Issued by NWS Newport/Morehead, NC

Current Version | Previous Version | Text Only | Print | Product List | Glossary On
Versions: 1 2 3 4 5 6 7 8 9 10 11 12 13 14 15 16 17 18 19 20 21 22 23 24 25 26 27 28 29 30 31 32 33 34 35 36 37 38 39 40 41 42 43 44 45 46 47 48 49 50
000
ASUS42 KMHX 091912
RWRMHX
WEATHER ROUNDUP FOR EASTERN NORTH CAROLINA
NATIONAL WEATHER SERVICE NEWPORT/MOREHEAD CITY NC
200 PM EST FRI DEC 09 2016

NOTE: "FAIR" INDICATES FEW OR NO CLOUDS BELOW 12,000 FEET
WITH NO SIGNIFICANT WEATHER AND/OR OBSTRUCTIONS TO VISIBILITY

NCZ015>017-031-032-045>047-102-103-092000-
NORTH COAST

CITY           SKY/WX    TMP DP  RH WIND       PRES   REMARKS
EDENTON        SUNNY     43  18  36 NW12      30.34S
ELIZABETH CITY SUNNY     42  18  37 NW13      30.32F
KITTY HAWK     CLEAR     41  24  50 NW7       30.30S
MANTEO         SUNNY     40  21  46 N10G16    30.32R

$$

NCZ045>047-081-094-103-104-092000-
CENTRAL COAST

CITY           SKY/WX    TMP DP  RH WIND       PRES   REMARKS
FRISCO         SUNNY     43  24  47 NW8G16    30.32R

$$

NCZ095-097-098-100-101-092000-
SOUTHERN COAST

CITY           SKY/WX    TMP DP  RH WIND       PRES   REMARKS
BEAUFORT       SUNNY     45  22  40 NW13      30.33S
CEDAR ISLAND   NOT AVBL
JACKSONVILLE   SUNNY     45  20  36 N12       30.34S
PINEY ISLAND   CLEAR    N/A N/A N/A NW15      30.32F
WILMINGTON     SUNNY     45  20  36 NW14      30.35S


$$

NCZ011>013-027>030-043-044-078>080-089-090>093-098-092000-
COASTAL PLAIN

CITY           SKY/WX    TMP DP  RH WIND       PRES   REMARKS
AHOSKIE        SUNNY     39  15  37 NW6       30.35F
CLINTON        SUNNY     42  20  41 NW8G16    30.37F
ELIZABETHTOWN  SUNNY     44  20  38 N7        30.36F
GOLDSBORO      SUNNY     43  17  35 VRB6      30.34F
GREENVILLE     SUNNY     41  18  38 NW3       30.35F
HAVELOCK       SUNNY     44  20  38 N15       30.33F
KENANSVILLE    SUNNY     43  18  36 NW8       30.36S
KINSTON        SUNNY     43  18  36 NW9G16    30.35F
NEW BERN       SUNNY     43  20  39 N10       30.35S
RICHLANDS      SUNNY     43  20  39 NW9       30.35S
ROCKY MOUNT    SUNNY     41  17  38 NW12      30.36F
WASHINGTON     SUNNY     42  16  35 NW9G17    30.34F
WHITEVILLE     SUNNY     44  20  38 N5        30.35F

$$

AMZ130-135-150-152-154-156-158-170-250-252-270-ANZ085-086-088-633-658-670-092000-
MARINE OBSERVATIONS

STATION/POSITION TIME  TEMP    WIND        PRES    WAVE   SWELL
                       AIR SEA DIR/SP/G            HT/PER HT/PER
                 (UTC) (F)     (DEG/KT/KT) (MB)    (FT/S) (FT/S)
CHESAPEAKE LIGHT NOT AVBL
64 E VA BEACH    1850   41 58  330/ 19/ 23 1024.5    6/ 7   2/15
DUCK             1848   39 53  330/ 15/ 21 1025.7
2 E DUCK         NOT AVBL
OREGON INLET     1842   39 52  300/ 11/ 14 1026.3
13E OREGON INLT  NOT AVBL
HATTERAS CG      1848   40 54  330/ 13/ 18 1026.2
DIAMOND BUOY     1850   42 76  350/ 16/ 21 1026.0    4/ 9   3/ 9
CAPE LOOKOUT     1800   41     330/ 11/ 14 1026.7
BEAUFORT LAB     1848   42 52  330/  6/ 12 1025.8
30 SE NEW RVR IN 1808   43 69  350/ 12/ 17 1027.1
30 SE NEW RVR IN 1843      69                N/A     3/ 4
27 SE WRIGHTSVLE 1808   43 69  340/ 12/ 19 1027.0
5 SE WRIGHTSVLE  1808   41 61  330/ 12/ 19 1027.3
225 S CAPE HAT   1850   60 73  350/ 17/ 23 1022.7    6/ 7   2/11
41 SE CHARLESTON 1750   48 72  360/ 16/ 21 1027.3    5/ 7   2/11

$$




USA.gov is the U.S. government's official web portal to all federal, state and local government web resources and services.